Location: Ergnies
(50.0854°N, 2.0375°E)
Time: 05:18:15
(UTC+00:00)

Daily predictions for brighter satellites

Satellite Brightness Start Highest point End
(mag) Time Altitude Azimuth Time Altitude Azimuth Time Altitude Azimuth
Cosmos 1833 Rocket 4.4 03:43:25 29° E 03:43:25 29° E 03:46:46 10° ESE
CZ-4C R/B 4.1 04:04:30 22° NNE 04:04:30 22° NNE 04:08:06 10° NE
Cosmos 2344 4.4 04:10:15 33° N 04:10:15 33° N 04:16:41 10° NE
ATLAS 2AS CENTAUR R/B 3.7 04:23:05 33° N 04:24:42 37° NNE 04:30:55 10° E
Lacrosse 5 rocket 3.5 04:43:59 19° NE 04:43:59 19° NE 04:45:14 10° NE
Cosmos 1844 Rocket 4.0 04:47:43 27° N 04:47:43 27° N 04:50:38 10° NNE
Cosmos 2181 Rocket 4.4 04:43:50 10° N 04:50:10 64° ENE 04:56:32 10° SSE
Gblst 52 Del rocket 4.0 04:50:15 78° N 04:50:16 78° N 04:55:48 10° E
Cosmos 909 Rocket 4.3 04:58:14 50° SW 04:58:14 50° SW 05:04:49 10° SSE
Helios 1A Rocket 4.2 04:57:26 10° SE 05:00:24 29° ENE 05:00:43 29° NE
GEOS 3 Rocket 3.6 04:57:54 10° SE 05:03:08 85° NE 05:04:14 58° NW
Cosmos 381 Rocket 4.4 05:01:59 31° SSW 05:05:15 81° WNW 05:11:42 10° NNE
Cosmos 44 4.4 05:06:20 30° N 05:08:24 43° NE 05:13:31 10° ESE
Cosmos 2263 Rocket 4.3 05:09:49 12° N 05:09:49 12° N 05:11:05 10° N
Meteor 1-11 Rocket 3.9 05:09:27 52° NW 05:09:27 52° NW 05:14:29 10° N
NOAA 12 4.1 05:06:28 10° NNE 05:11:44 80° ESE 05:16:57 10° SSW
ARIANE 6 FM1 Upper Stage 3.5 05:13:24 38° S 05:13:24 38° S 05:16:05 10° SSE
Cosmos 2082 Rocket 3.3 05:09:07 17° NNW 05:13:02 41° NE 05:18:22 10° ESE
ATLAS CENTAUR R/B 2.6 05:13:37 25° NE 05:13:37 25° NE 05:15:49 10° E
CZ-4 R/B 4.0 05:09:20 10° NNE 05:14:06 71° ESE 05:18:56 10° S
BREEZE-M DEB (TANK) 4.3 05:12:42 36° W 05:15:41 48° SW 05:19:58 10° SSE
Cosmos 2278 Rocket 3.7 05:13:28 10° S 05:18:35 37° ESE 05:23:44 10° NE
Cosmos 1992 Rocket 3.8 05:18:02 54° NW 05:19:06 70° WSW 05:24:16 10° SSE
Cosmos 1515 Rocket 3.8 05:21:46 52° SW 05:21:46 52° SW 05:25:19 10° S
Cosmos 1833 Rocket 2.8 05:25:07 46° W 05:25:40 48° WSW 05:31:01 10° S
Cosmos 2074 Rocket 4.3 05:20:04 10° S 05:26:17 68° E 05:32:33 10° NNE
BREEZE-M DEB (TANK) 2.9 05:29:52 68° SE 05:29:52 68° SE 05:33:29 10° E
Meteor 2-13 Rocket 4.3 05:27:09 10° NNW 05:33:18 75° W 05:39:22 10° S
FengYun 1-2 T 4.5 05:32:05 10° N 05:37:23 45° WNW 05:40:37 22° SW
Okean 3 3.2 05:35:40 23° N 05:38:09 87° E 05:42:08 10° S
Nadezhda 3 Rocket 4.1 05:32:45 10° N 05:39:01 78° E 05:45:19 10° SSE
Cosmos 614 Rocket 4.5 05:44:24 34° WNW 05:44:29 34° NW 05:49:07 10° N
COSMO-SKYMED 1 2.6 05:40:35 10° S 05:44:34 49° W 05:45:19 43° WNW
Cosmos 1943 Rocket 2.5 05:41:27 10° SSW 05:46:52 65° ESE 05:52:20 10° NNE
Okean 3 Rocket 3.6 05:44:13 10° SSW 05:48:29 50° WNW 05:52:49 10° N
Cosmos 1484 Rocket 2.8 05:46:06 10° NNE 05:49:28 65° ESE 05:52:51 10° S
Timation 1 Rocket 4.3 05:47:39 21° NW 05:51:42 67° WSW 05:57:38 10° SSE
CZ-4C R/B 4.0 05:49:26 16° NNW 05:53:05 27° NNE 05:59:13 10° ENE
Cosmos 1805 Rocket 3.4 05:50:53 10° SSW 05:55:18 75° W 05:59:45 10° N
USA 307 3.0 05:56:16 34° NW 05:57:42 55° NNE 06:01:34 10° E
RUBIN 8/PSLV 4.4 05:53:39 10° N 05:57:50 69° WNW 06:01:59 10° SSW
Meteor 2-10 Rocket 3.4 05:52:46 10° SSW 05:57:51 83° WNW 06:03:10 10° N
CBERS-1 4.5 05:52:48 10° NNE 05:57:52 63° ESE 06:02:54 10° S
TIMED 4.3 05:53:43 10° SSW 05:57:58 86° WNW 06:02:15 10° NNE
IRS-1D 3.9 05:56:48 10° N 06:01:48 43° WNW 06:06:47 10° SW
Cosmos 2154 Rocket 3.9 05:55:54 10° SSW 06:02:13 80° W 06:08:33 10° N
Cosmos 540 Rocket 4.3 05:57:43 10° NNW 06:02:39 48° ENE 06:07:34 10° SE
Cosmos 1295 Rocket 4.5 05:57:36 10° SSW 06:03:53 64° WNW 06:10:10 10° N
Cosmos 1500 Rocket 3.5 05:59:50 10° SSW 06:04:08 62° WNW 06:08:30 10° N
IGS 5A 3.2 06:02:38 10° N 06:06:37 73° WNW 06:10:34 10° SSW
Sich 1 3.5 06:04:43 10° SW 06:08:35 35° WNW 06:12:28 10° N
Cosmos 1408 Rocket 3.7 06:05:58 10° SSW 06:10:10 48° WNW 06:14:21 10° N
SMAP 3.6 06:07:40 10° NNE 06:12:18 63° ESE 06:16:55 10° S
Okean 1-7 3.3 06:11:28 10° N 06:15:36 66° E 06:19:43 10° SSE
ATLAS 2AS CENTAUR R/B 2.6 06:10:31 15° NW 06:16:16 83° SW 06:23:02 10° SE
Okean 2 4.3 06:16:27 23° W 06:16:42 24° W 06:19:47 10° SW
NOSS 8 (F) 4.2 06:15:18 24° NW 06:16:56 72° NE 06:20:14 10° SE
Thor Agena Rocket 4.1 06:13:36 10° NNE 06:18:39 62° ESE 06:23:44 10° S
Lacrosse 5 rocket 2.4 06:17:30 20° NW 06:19:12 28° N 06:22:31 10° ENE
SJ 16-02 4.3 06:16:23 10° SE 06:19:21 19° E 06:22:21 10° NE
Cosmos 921 Rocket 3.1 06:20:35 10° SW 06:24:47 50° WNW 06:28:56 10° NNE
Cosmos 2084 3.9 06:22:18 17° W 06:25:08 39° NW 06:29:03 10° NE
Timation 2 Rocket 4.0 06:20:09 10° SSW 06:26:46 83° WNW 06:33:09 10° NNE
Cosmos 1328 4.2 06:23:35 10° N 06:27:08 56° ENE 06:30:40 10° SSE
Cosmos 1844 Rocket 4.5 06:29:21 12° NW 06:30:56 13° NNW 06:33:29 10° N
Helios 1A Rocket 3.7 06:30:14 10° SSW 06:32:52 21° W 06:34:07 17° WNW
Meteor 1-24 Rocket 4.1 06:29:48 10° N 06:35:51 75° ENE 06:41:52 10° SSE
NOSS 8 (H) 4.5 06:33:56 18° WNW 06:35:53 50° SW 06:39:11 10° SSE
Meteor 2-19 Rocket 4.4 06:35:05 10° NNW 06:41:09 73° W 06:47:10 10° S
AQUARIUS 4.5 06:36:49 10° NNE 06:41:14 70° ESE 06:45:37 10° S
Cosmos 1953 3.2 06:37:44 10° S 06:41:14 47° E 06:44:48 10° NNE
Gblst 52 Del rocket 4.4 06:37:10 14° WNW 06:41:53 60° SSW 06:47:27 10° SE
Cosmos 1862 Rocket 3.6 06:38:16 10° NNW 06:42:33 57° W 06:46:46 10° S
Cosmos 2184 Rocket 4.4 06:39:34 10° SW 06:45:17 38° WNW 06:51:00 10° N
ATLAS CENTAUR R/B 1.6 06:45:25 14° WNW 06:47:33 30° WSW 06:50:13 10° S
Cosmos 44 4.0 06:44:39 10° NW 06:49:38 46° WSW 06:54:44 10° SSE
USA 32 4.3 06:44:56 10° SSW 06:49:55 44° WNW 06:54:57 10° N
SJ-12 3.7 06:46:27 10° NNE 06:50:18 85° WNW 06:54:07 10° SSW
COSMOS 2406 3.3 06:45:12 10° NNW 06:50:58 83° WSW 06:56:43 10° SSE
Molniya-1 4.4 06:49:46 10° SSW 06:52:36 55° ESE 06:59:03 10° NE
CENTAUR R/B 3.6 06:48:55 10° SSW 06:54:11 49° ESE 07:00:48 10° NE
SeaSat 1 2.4 06:49:57 10° NNE 06:54:48 63° NW 06:59:38 10° SW
Cosmos 2082 Rocket 2.7 06:51:49 10° NW 06:57:08 42° WSW 07:02:26 10° S
SL-8 Rocket 4.0 06:51:16 10° S 06:57:35 84° W 07:03:54 10° N
Resurs 01 Rocket 4.3 06:54:58 10° NE 06:58:29 23° E 07:01:58 10° SE
Cosmos 1707 Rocket 4.0 06:54:38 10° NNW 06:58:41 40° W 07:02:44 10° SSW
Cosmos 1269 Rocket 4.3 06:54:25 10° SW 06:59:31 48° WNW 07:04:40 10° NNE
YAOGAN 1 3.8 06:56:13 10° NNE 07:00:22 47° E 07:04:28 10° S
Cosmos 2278 Rocket 2.5 06:57:09 10° SW 07:02:34 45° NW 07:08:01 10° NNE
Cosmos 1758 4.3 07:01:40 10° WSW 07:04:36 21° WNW 07:07:32 10° NNW
Cosmos 2228 Rocket 3.4 07:01:22 10° NNW 07:05:34 45° W 07:09:44 10° SSW
SAR-Lupe-4 3.5 07:03:10 10° NNE 07:06:47 86° WNW 07:10:22 10° SSW
Cosmos 1633 Rocket 3.2 07:05:53 10° SSW 07:10:07 51° WNW 07:14:21 10° N
Cosmos 864 Rocket 4.5 07:04:08 10° SSW 07:10:15 76° W 07:16:26 10° N
Gbstr 26 Del rocket 4.2 07:04:13 10° WSW 07:11:27 84° SSE 07:17:26 10° ENE
